Retour au catalogue

STARLINK-32961

ActifCommunicationsVLEO
NORAD 63122·PAYLOAD·🇺🇸 United States

Lancé Feb 27, 2025 depuis Cape Canaveral Space Force Station

Loading…

Prochains Passages (prochaines 24 heures)

TLE

FraisSource: CelesTrak SupGP

Époque: Sep 15, 2026, 02:18 UTC

1 63122C 25039U   26258.09631944 -.00012242  00000+0 -44348-3 0  2588
2 63122  43.0017  23.1849 0001509 273.4423  70.3703 15.27578060    10

Suivez STARLINK-32961 en temps réel avec AllMySat

Download on the App Store